Osceola Municipal, IA

4:33 PM CDT on June 25, 2017 (GMT -0500)
Osceola Municipal

Weather History for KI75 - December, 2012

Change the Weather History Date:

Thursday, December 13, 2012

  Actual Average (KCNC) Record (KCNC)
Temperature  
Mean Temperature 42 °F -  
Max Temperature 52 °F 38 °F 60 °F (1975)
Min Temperature 31 °F 16 °F -22 °F (1961)
Degree Days  
Heating Degree Days 24    
Moisture  
Dew Point 18 °F    
Average Humidity 42    
Maximum Humidity 65    
Minimum Humidity 27    
Precipitation  
Precipitation 0.00 in - - ()
Sea Level Pressure  
Sea Level Pressure 30.06 in    
Wind  
Wind Speed 13 mph (South)    
Max Wind Speed 22 mph    
Max Gust Speed 26 mph    
Visibility 10 miles    
Events      
Averages and records for this station are not official NWS values.
T = Trace of Precipitation, MM = Missing Value Source: NWS Daily Summary

Daily Weather History Graph

Daily Weather History Graph

Search for Another Location

Airport or City:

Trip Planner

Search our weather history database for the weather conditions in past years. The results will help you decide how hot, cold, wet, or windy it might be!

Date:

Astronomy

Dec. 13, 2012 Rise Set
Actual Time 7:31 AM CST 4:46 PM CST
Civil Twilight 7:00 AM CST 5:17 PM CST
Nautical Twilight 6:25 AM CST 5:52 PM CST
Astronomical Twilight 5:52 AM CST 6:25 PM CST
Moon 7:40 AM CST (12/13) 5:30 PM CST (12/13)
Length of Visible Light 10h 17m
Length of Day
9h 15m
New Moon, 0% of the Moon is Illuminated
Dec 13
New Moon
Dec 19
First Quarter
Dec 28
Full
Jan 4
Last Quarter
Jan 11
New

Hourly Weather History & Observations

Time (CST) Temp. Windchill Dew Point Humidity Pressure Visibility Wind Dir Wind Speed Gust Speed Precip Events Conditions
12:15 AM 36.1 °F 27.7 °F 13.5 °F 39% 30.09 in 10.0 mi South 12.7 mph - N/A   Clear
12:35 AM 35.8 °F 27.3 °F 13.5 °F 40% 30.09 in 10.0 mi South 12.7 mph - N/A   Clear
12:55 AM 35.6 °F 27.5 °F 13.8 °F 41% 30.08 in 10.0 mi South 11.5 mph - N/A   Clear
1:15 AM 35.6 °F 27.5 °F 14.0 °F 41% 30.08 in 10.0 mi South 11.5 mph - N/A   Clear
1:35 AM 35.6 °F 27.1 °F 14.0 °F 41% 30.08 in 10.0 mi South 12.7 mph - N/A   Clear
1:55 AM 35.1 °F 26.4 °F 14.2 °F 42% 30.08 in 10.0 mi South 12.7 mph - N/A   Clear
2:15 AM 35.8 °F 26.9 °F 14.0 °F 41% 30.08 in 10.0 mi South 13.8 mph - N/A   Clear
2:35 AM 36.0 °F 28.0 °F 14.2 °F 41% 30.08 in 10.0 mi South 11.5 mph - N/A   Clear
2:55 AM 35.6 °F 27.1 °F 14.5 °F 42% 30.08 in 10.0 mi South 12.7 mph - N/A   Clear
3:15 AM 35.2 °F 26.6 °F 14.9 °F 43% 30.07 in 10.0 mi South 12.7 mph - N/A   Clear
3:35 AM 35.2 °F 26.6 °F 14.9 °F 43% 30.06 in 10.0 mi South 12.7 mph - N/A   Clear
3:55 AM 35.6 °F 27.1 °F 14.9 °F 43% 30.06 in 10.0 mi South 12.7 mph - N/A   Clear
4:15 AM 35.1 °F 26.4 °F 15.4 °F 45% 30.05 in 10.0 mi South 12.7 mph - N/A   Clear
4:35 AM 35.6 °F 27.1 °F 15.4 °F 44% 30.04 in 10.0 mi South 12.7 mph - N/A   Clear
4:55 AM 35.6 °F 26.6 °F 15.6 °F 44% 30.04 in 10.0 mi South 13.8 mph - N/A   Clear
5:15 AM 35.8 °F 26.5 °F 15.6 °F 44% 30.03 in 10.0 mi South 15.0 mph - N/A   Clear
5:35 AM 35.8 °F 26.1 °F 15.6 °F 44% 30.04 in 10.0 mi South 16.1 mph - N/A   Clear
5:55 AM 35.4 °F 25.6 °F 15.8 °F 45% 30.03 in 10.0 mi South 16.1 mph - N/A   Clear
6:15 AM 35.6 °F 25.2 °F 15.8 °F 44% 30.04 in 10.0 mi South 18.4 mph 21.9 mph N/A   Clear
6:35 AM 36.0 °F 25.3 °F 15.8 °F 44% 30.04 in 10.0 mi South 19.6 mph - N/A   Clear
6:55 AM 36.3 °F 25.5 °F 16.2 °F 44% 30.04 in 10.0 mi South 20.7 mph 26.5 mph N/A   Clear
7:15 AM 35.6 °F 25.9 °F 16.5 °F 46% 30.04 in 10.0 mi South 16.1 mph 24.2 mph N/A   Clear
7:35 AM 35.6 °F 24.8 °F 16.7 °F 46% 30.05 in 10.0 mi South 19.6 mph 24.2 mph N/A   Clear
7:55 AM 35.6 °F 25.9 °F 17.1 °F 47% 30.04 in 10.0 mi South 16.1 mph 20.7 mph N/A   Clear
8:15 AM 36.7 °F 26.9 °F 17.2 °F 45% 30.05 in 10.0 mi South 17.3 mph 21.9 mph N/A   Clear
8:35 AM 37.6 °F 28.1 °F 17.4 °F 44% 30.05 in 10.0 mi South 17.3 mph 20.7 mph N/A   Clear
8:55 AM 38.7 °F 29.8 °F 17.6 °F 43% 30.06 in 10.0 mi SSW 16.1 mph 25.3 mph N/A   Clear
9:15 AM 40.5 °F 31.5 °F 17.6 °F 40% 30.06 in 10.0 mi SSW 18.4 mph 26.5 mph N/A   Clear
9:35 AM 40.6 °F 32.0 °F 17.2 °F 39% 30.06 in 10.0 mi SSW 17.3 mph 25.3 mph N/A   Clear
9:55 AM 42.6 °F 34.0 °F 16.7 °F 35% 30.08 in 10.0 mi SSW 19.6 mph 25.3 mph N/A   Clear
10:15 AM 42.6 °F 34.9 °F 17.1 °F 36% 30.07 in 10.0 mi SSW 16.1 mph 24.2 mph N/A   Clear
10:35 AM 44.4 °F 37.5 °F 17.4 °F 34% 30.07 in 10.0 mi SSW 15.0 mph 23.0 mph N/A   Clear
10:55 AM 45.3 °F 37.1 °F 17.4 °F 33% 30.06 in 10.0 mi SSW 21.9 mph 25.3 mph N/A   Clear
11:15 AM 46.2 °F 38.7 °F 17.4 °F 32% 30.06 in 10.0 mi SSW 19.6 mph 23.0 mph N/A   Clear
11:35 AM 47.5 °F - 17.6 °F 30% 30.06 in 10.0 mi SW 18.4 mph 24.2 mph N/A   Clear
11:55 AM 48.6 °F - 18.1 °F 30% 30.06 in 10.0 mi SW 17.3 mph 23.0 mph N/A   Clear
12:15 PM 49.3 °F - 18.3 °F 29% 30.06 in 10.0 mi SSW 13.8 mph 18.4 mph N/A   Clear
12:35 PM 49.1 °F - 18.3 °F 30% 30.05 in 10.0 mi SSW 15.0 mph - N/A   Clear
12:55 PM 50.0 °F - 18.5 °F 29% 30.05 in 10.0 mi SSW 13.8 mph - N/A   Clear
1:15 PM 50.9 °F - 18.9 °F 28% 30.04 in 10.0 mi SSW 11.5 mph 18.4 mph N/A   Clear
1:35 PM 51.6 °F - 19.0 °F 28% 30.03 in 10.0 mi SSW 11.5 mph - N/A   Clear
1:55 PM 52.0 °F - 19.0 °F 27% 30.04 in 10.0 mi SSW 13.8 mph 20.7 mph N/A   Clear
2:15 PM 52.3 °F - 18.9 °F 27% 30.03 in 10.0 mi SSW 15.0 mph - N/A   Clear
2:35 PM 52.0 °F - 19.2 °F 28% 30.03 in 10.0 mi SSW 13.8 mph - N/A   Clear
2:55 PM 52.2 °F - 19.0 °F 27% 30.03 in 10.0 mi SSW 11.5 mph 17.3 mph N/A   Clear
3:15 PM 49.6 °F - 19.2 °F 30% 30.03 in 10.0 mi SSW 9.2 mph - N/A   Clear
3:35 PM 49.1 °F - 19.4 °F 31% 30.04 in 10.0 mi SSW 8.1 mph - N/A   Clear
3:55 PM 48.4 °F - 20.1 °F 33% 30.05 in 10.0 mi SW 5.8 mph - N/A   Clear
4:15 PM 47.1 °F - 20.8 °F 35% 30.05 in 10.0 mi SSW 4.6 mph - N/A   Clear
4:35 PM 45.0 °F 41.8 °F 20.8 °F 38% 30.06 in 10.0 mi SSW 5.8 mph - N/A   Clear
7:15 PM 40.6 °F 38.6 °F 20.7 °F 45% 30.08 in 10.0 mi South 3.5 mph - N/A   Clear
7:35 PM 40.3 °F 36.3 °F 20.5 °F 45% 30.08 in 10.0 mi South 5.8 mph - N/A   Clear
7:55 PM 38.1 °F 32.9 °F 21.0 °F 50% 30.08 in 10.0 mi SSW 6.9 mph - N/A   Clear
8:15 PM 35.2 °F 31.2 °F 20.8 °F 56% 30.08 in 10.0 mi South 4.6 mph - N/A   Clear
8:35 PM 37.4 °F 34.9 °F 21.0 °F 52% 30.08 in 10.0 mi South 3.5 mph - N/A   Clear
8:55 PM 36.5 °F 32.7 °F 21.2 °F 54% 30.08 in 10.0 mi South 4.6 mph - N/A   Clear
9:15 PM 37.6 °F 34.0 °F 21.2 °F 52% 30.07 in 10.0 mi South 4.6 mph - N/A   Clear
9:35 PM 37.4 °F 33.8 °F 21.0 °F 52% 30.08 in 10.0 mi South 4.6 mph - N/A   Clear
9:55 PM 32.7 °F 28.3 °F 20.8 °F 62% 30.09 in 10.0 mi South 4.6 mph - N/A   Clear
10:15 PM 36.1 °F 32.3 °F 21.2 °F 55% 30.09 in 10.0 mi SSE 4.6 mph - N/A   Clear
10:35 PM 31.8 °F 26.2 °F 20.7 °F 63% 30.08 in 10.0 mi SSE 5.8 mph - N/A   Clear
10:55 PM 31.8 °F 26.2 °F 20.8 °F 64% 30.09 in 10.0 mi South 5.8 mph - N/A   Clear
11:15 PM 31.5 °F 26.8 °F 21.0 °F 65% 30.08 in 10.0 mi South 4.6 mph - N/A   Clear
11:35 PM 33.8 °F 29.6 °F 21.4 °F 60% 30.09 in 10.0 mi South 4.6 mph - N/A   Clear
11:55 PM 32.9 °F 27.5 °F 21.2 °F 62% 30.09 in 10.0 mi South 5.8 mph - N/A   Clear